When you browse on this site, cookies collect data to enhance your experience and personalize the content and advertising you see.
Visit our Privacy Policy to learn more. By continuing to use the site, you agree to this use of cookies and data.

Stündliche Wetter Aracaju

Heute, 14 Juli, Dienstag

Zeit Temperatur Niederschläge Wind Luftdruck Luftfeuchtigkeit
00:00 +25°C° 0.4 mm 1 m/S 761 mmHg 88%
01:00 +25°C° 0.4 mm 1 m/S 761 mmHg 88%
02:00 +25°C° 0.4 mm 1 m/S 761 mmHg 89%
03:00 +24°C° 0.4 mm 1 m/S 760 mmHg 89%
04:00 +24°C° 0.4 mm 1 m/S 760 mmHg 90%
05:00 +24°C° 0.5 mm 1 m/S 760 mmHg 90%
06:00 +24°C° 0.5 mm 1 m/S 760 mmHg 90%
07:00 +24°C° 0.5 mm 1 m/S 760 mmHg 91%
08:00 +25°C° 0.4 mm 1 m/S 761 mmHg 88%
09:00 +26°C° 0.4 mm 1 m/S 761 mmHg 85%
10:00 +27°C° 0.4 mm 2 m/S 762 mmHg 82%
11:00 +27°C° 0.2 mm 2 m/S 761 mmHg 79%
12:00 +28°C° 0.2 mm 2 m/S 761 mmHg 77%
13:00 +28°C° 0.2 mm 1 m/S 761 mmHg 74%
14:00 +28°C° 0 mm 2 m/S 760 mmHg 73%
15:00 +28°C° 0 mm 2 m/S 760 mmHg 71%
16:00 +29°C° 0 mm 3 m/S 759 mmHg 69%
17:00 +28°C° 0 mm 3 m/S 760 mmHg 73%
18:00 +27°C° 0 mm 2 m/S 760 mmHg 77%
19:00 +26°C° 0 mm 2 m/S 761 mmHg 81%
20:00 +25°C° 0 mm 2 m/S 761 mmHg 82%
21:00 +25°C° 0 mm 2 m/S 761 mmHg 83%
22:00 +25°C° 0 mm 2 m/S 761 mmHg 83%
23:00 +25°C° 0 mm 2 m/S 761 mmHg 83%

Morgen, 15 Juli, Mittwoch

Zeit Temperatur Niederschläge Wind Luftdruck Luftfeuchtigkeit
00:00 +25°C° 0 mm 2 m/S 762 mmHg 83%
01:00 +25°C° 0 mm 1 m/S 762 mmHg 83%
02:00 +24°C° 0 mm 1 m/S 761 mmHg 84%
03:00 +24°C° 0 mm 1 m/S 761 mmHg 85%
04:00 +24°C° 0 mm 2 m/S 761 mmHg 86%
05:00 +24°C° 0 mm 2 m/S 761 mmHg 86%
06:00 +24°C° 0 mm 1 m/S 761 mmHg 86%
07:00 +24°C° 0 mm 1 m/S 761 mmHg 85%
08:00 +25°C° 0 mm 2 m/S 761 mmHg 80%
09:00 +26°C° 0 mm 2 m/S 762 mmHg 75%
10:00 +28°C° 0 mm 2 m/S 762 mmHg 70%
11:00 +28°C° 0 mm 3 m/S 762 mmHg 68%
12:00 +29°C° 0 mm 3 m/S 762 mmHg 66%
13:00 +29°C° 0 mm 3 m/S 761 mmHg 64%
14:00 +29°C° 0 mm 3 m/S 761 mmHg 65%
15:00 +29°C° 0 mm 3 m/S 761 mmHg 66%
16:00 +28°C° 0 mm 3 m/S 760 mmHg 68%
17:00 +27°C° 0 mm 3 m/S 760 mmHg 72%
18:00 +26°C° 0 mm 3 m/S 760 mmHg 76%
19:00 +25°C° 0 mm 3 m/S 761 mmHg 80%
20:00 +25°C° 0 mm 3 m/S 761 mmHg 81%
21:00 +25°C° 0 mm 3 m/S 761 mmHg 82%
22:00 +25°C° 0 mm 3 m/S 762 mmHg 83%
23:00 +25°C° 0 mm 3 m/S 762 mmHg 84%

übermorgen, 16 Juli, Donnerstag

Zeit Temperatur Niederschläge Wind Luftdruck Luftfeuchtigkeit
00:00 +25°C° 0 mm 3 m/S 762 mmHg 85%
01:00 +24°C° 0 mm 3 m/S 762 mmHg 86%
02:00 +24°C° 0.1 mm 3 m/S 761 mmHg 87%
03:00 +24°C° 0.1 mm 3 m/S 761 mmHg 88%
04:00 +24°C° 0.1 mm 3 m/S 761 mmHg 90%
05:00 +24°C° 0.2 mm 3 m/S 761 mmHg 89%
06:00 +24°C° 0.2 mm 3 m/S 761 mmHg 89%
07:00 +24°C° 0.2 mm 3 m/S 761 mmHg 89%
08:00 +25°C° 0.5 mm 3 m/S 762 mmHg 85%
09:00 +26°C° 0.5 mm 3 m/S 762 mmHg 81%
10:00 +27°C° 0.5 mm 3 m/S 762 mmHg 77%
11:00 +28°C° 0.7 mm 4 m/S 762 mmHg 77%
12:00 +28°C° 0.7 mm 5 m/S 762 mmHg 76%
13:00 +28°C° 0.7 mm 5 m/S 762 mmHg 76%
14:00 +27°C° 0.6 mm 5 m/S 761 mmHg 78%
15:00 +27°C° 0.6 mm 5 m/S 761 mmHg 79%
16:00 +26°C° 0.6 mm 6 m/S 761 mmHg 81%
17:00 +26°C° 0 mm 5 m/S 761 mmHg 80%
18:00 +26°C° 0 mm 5 m/S 761 mmHg 79%
19:00 +25°C° 0 mm 5 m/S 762 mmHg 78%
20:00 +25°C° 0 mm 5 m/S 762 mmHg 78%
21:00 +25°C° 0 mm 5 m/S 762 mmHg 77%
22:00 +25°C° 0 mm 5 m/S 763 mmHg 77%
23:00 +25°C° 0 mm 5 m/S 763 mmHg 77%

17 Juli, Freitag

Zeit Temperatur Niederschläge Wind Luftdruck Luftfeuchtigkeit
00:00 +25°C° 0 mm 5 m/S 762 mmHg 77%
01:00 +25°C° 0 mm 5 m/S 762 mmHg 77%
02:00 +25°C° 0 mm 5 m/S 762 mmHg 78%
03:00 +25°C° 0 mm 5 m/S 761 mmHg 78%
04:00 +25°C° 0 mm 4 m/S 761 mmHg 78%
05:00 +23°C° 0.1 mm 4 m/S 761 mmHg 78%
06:00 +23°C° 0.1 mm 4 m/S 761 mmHg 78%
07:00 +23°C° 0.1 mm 4 m/S 761 mmHg 78%
08:00 +26°C° 0 mm 5 m/S 762 mmHg 74%
09:00 +27°C° 0 mm 5 m/S 762 mmHg 70%
10:00 +28°C° 0 mm 6 m/S 763 mmHg 66%
11:00 +28°C° 0 mm 6 m/S 762 mmHg 65%
12:00 +28°C° 0 mm 6 m/S 762 mmHg 64%
13:00 +29°C° 0 mm 6 m/S 761 mmHg 63%
14:00 +28°C° 0.1 mm 6 m/S 761 mmHg 66%
15:00 +28°C° 0.1 mm 6 m/S 761 mmHg 68%
16:00 +28°C° 0.1 mm 6 m/S 761 mmHg 71%
17:00 +27°C° 0.1 mm 5 m/S 761 mmHg 72%
18:00 +26°C° 0.1 mm 5 m/S 761 mmHg 73%
19:00 +25°C° 0.1 mm 5 m/S 761 mmHg 75%
20:00 +25°C° 0 mm 5 m/S 762 mmHg 75%
21:00 +25°C° 0 mm 5 m/S 762 mmHg 76%
22:00 +25°C° 0 mm 5 m/S 762 mmHg 77%
23:00 +25°C° 0 mm 5 m/S 762 mmHg 77%

18 Juli, Samstag

Zeit Temperatur Niederschläge Wind Luftdruck Luftfeuchtigkeit
00:00 +25°C° 0 mm 5 m/S 762 mmHg 78%
01:00 +25°C° 0 mm 5 m/S 762 mmHg 78%
02:00 +23°C° 0 mm 4 m/S 761 mmHg 79%
03:00 +23°C° 0 mm 4 m/S 761 mmHg 79%
04:00 +23°C° 0 mm 4 m/S 761 mmHg 79%
05:00 +23°C° 0 mm 4 m/S 761 mmHg 79%
06:00 +25°C° 0 mm 4 m/S 761 mmHg 79%
07:00 +25°C° 0 mm 4 m/S 761 mmHg 78%
08:00 +25°C° 0.1 mm 4 m/S 762 mmHg 77%
09:00 +26°C° 0.1 mm 5 m/S 762 mmHg 76%
10:00 +27°C° 0.1 mm 5 m/S 763 mmHg 74%
11:00 +27°C° 0 mm 5 m/S 762 mmHg 71%
12:00 +28°C° 0 mm 6 m/S 762 mmHg 67%
13:00 +29°C° 0 mm 6 m/S 762 mmHg 64%
14:00 +28°C° 0 mm 6 m/S 761 mmHg 65%
15:00 +28°C° 0 mm 5 m/S 761 mmHg 66%
16:00 +28°C° 0 mm 5 m/S 761 mmHg 67%
17:00 +27°C° 0 mm 5 m/S 761 mmHg 70%
18:00 +26°C° 0 mm 5 m/S 761 mmHg 74%
19:00 +25°C° 0 mm 4 m/S 761 mmHg 77%
20:00 +25°C° 0 mm 4 m/S 761 mmHg 77%
21:00 +25°C° 0 mm 4 m/S 762 mmHg 78%
22:00 +25°C° 0 mm 4 m/S 762 mmHg 78%
23:00 +25°C° 0.2 mm 4 m/S 762 mmHg 81%

19 Juli, Sonntag

Zeit Temperatur Niederschläge Wind Luftdruck Luftfeuchtigkeit
00:00 +25°C° 0.2 mm 4 m/S 762 mmHg 83%
01:00 +25°C° 0.2 mm 4 m/S 762 mmHg 85%
02:00 +25°C° 0.6 mm 5 m/S 761 mmHg 85%
03:00 +25°C° 0.6 mm 5 m/S 761 mmHg 85%
04:00 +23°C° 0.6 mm 5 m/S 761 mmHg 85%
05:00 +23°C° 0.4 mm 5 m/S 761 mmHg 85%
06:00 +23°C° 0.4 mm 5 m/S 761 mmHg 85%
07:00 +23°C° 0.4 mm 5 m/S 761 mmHg 84%
08:00 +25°C° 0 mm 5 m/S 762 mmHg 80%
09:00 +26°C° 0 mm 5 m/S 762 mmHg 77%
10:00 +27°C° 0 mm 5 m/S 762 mmHg 73%
11:00 +28°C° 0.2 mm 5 m/S 762 mmHg 72%
12:00 +28°C° 0.2 mm 5 m/S 762 mmHg 70%
13:00 +28°C° 0.2 mm 5 m/S 761 mmHg 69%
14:00 +28°C° 0.2 mm 5 m/S 761 mmHg 70%
15:00 +28°C° 0.2 mm 5 m/S 761 mmHg 70%
16:00 +27°C° 0.2 mm 5 m/S 760 mmHg 71%
17:00 +27°C° 0 mm 5 m/S 761 mmHg 73%
18:00 +26°C° 0 mm 4 m/S 761 mmHg 75%
19:00 +25°C° 0 mm 4 m/S 761 mmHg 77%
20:00 +25°C° 0 mm 4 m/S 761 mmHg 78%
21:00 +25°C° 0 mm 4 m/S 762 mmHg 78%
22:00 +25°C° 0 mm 4 m/S 762 mmHg 78%
23:00 +25°C° 0 mm 4 m/S 762 mmHg 80%
Mehr zeigen